THOR ABLESTAR DEB, 320

Orbit data source: Space-Track

THOR ABLESTAR DEB, 320 is space debris in LEO originally from a launch on Thu, 29 Jun 1961 UTC launched from the Air Force Eastern Test Range (AFETR). Debris objects in space refer to the collection of defunct objects orbiting the Earth. Examples of debris include non-operational satellites, rocket bodies, and fragments generated from explosions, collisions, or faulty payload assembly.

Loading next visibility...
Identifier
320, 1961-015CW
Orbit
LEO
Country
Flag of USUS
Related business
Manufacturer
Unknown
Mission
Spacecraft
Bus & Motor
Unknown
Mass
Unknown
Launch date (UTC)
1961-06-29 (64 years ago)
Launch vehicle
Unknown
Launch site
Air Force Eastern Test Range (AFETR)
Object type
Payload
Rocket body
Debris
Shape & HBR
Unknown shape, 0.2 m
Radar Cross Section
Medium (>0.1 m² and <1 m²)

Expand to show TLE details & history
Last TLE update: 5 hours ago

TLE from 5 hours ago
0 THOR ABLESTAR DEB
1   320U 61015CW  25353.84909983  .00000362  00000-0  15972-3 0  9994
2   320  66.9037 150.7091 0132030 164.9294 195.5800 14.29413963342723
Epoch: 2025-12-19T20:22Z
TLE epoch observation values (Epoch: 2025-12-19T20:22:42.225Z)
Latitude
-0.00005°
Longitude
116.34878°
Altitude
887.123 km
Speed
7.362 km/s
True Right ascension
10h 02m 50s
True Declination
0° 00' 00"
Sunlit
Object was in daylight at epoch
Visualization orbit readout
Latitude
Unknown
Longitude
Unknown
Altitude
Unknown
Speed
Unknown
Apparent Right ascension
Unknown
Apparent Declination
Unknown
Sunlit
N/A
Visualization observer readout
Local Sidereal Time
00:15:45
Azimuth
Unknown
Elevation
Unknown
Doppler factor
Unknown
Orbital elements
Apogee altitude
886.71 km
Perigee altitude
697.374 km
Semi-major axis
7,170.179 km
Eccentricity
0.0132
Inclination
66.9037°
RAAN
150.7091°
Arg. of periapsis
164.9294°
True anomaly
195.18001°
Mean anomaly
195.58°
Eccentric anomaly
195.37938°
Mean motion
3.57477 °/min
Orbital period
100.71 mins
BSTAR
0.00015972
Loading maneuver chart data...
Computing Atmospheric mass density...

Documentation

Showing up to 5 results
|